User: anonymous   Login
Location: Unspecified
(0.0000°N, 0.0000°E)
Time: 16:27:35
(UTC+00:00)
Language:

DIWATA 2B (PO-101) - Orbit

View from above orbital plane
View from above orbital plane
View from above satellite
View from above satellite

Ground track
Ground track

The orbit data is extracted from the following two-line orbital elements,

1 43678U 18084H   20293.10519139  .00000404  00000-0  45930-4 0  9997
2 43678  97.8980  51.6021 0011120 123.5101 236.7185 14.91662236107453
Epoch (UTC): 19 October 2020 02:31:28
Eccentricity: 0.0011120
inclination: 97.8980°
perigee height: 585 km
apogee height: 600 km
right ascension of ascending node: 51.6021°
argument of perigee: 123.5101°
revolutions per day: 14.91662236
mean anomaly at epoch: 236.7185°
orbit number at epoch: 10745

The dashed part of the orbit path shows where the satellite is in the earth's shadow,  

DLR